Temp
-9 -9 -10 -11 -11 -12 -13 -14 -14 -13 -13 -13 -12 -12 -12 -13 -12 -13 -13 -13 -13 -14 -13 -14 -14 -14 -14 -14 -14 -14 -14 -14 -14 -14 -13 -13 -13 -14 -13 -13 -14 -14 -13 -12 -13 -12 -13 -12 -13
-10 -11 -12 -12 -13 -12 -14 -15 -14 -13 -13 -13 -13 -13 -12 -13 -13 -14 -14 -14 -13 -14 -15 -14 -14 -14 -14 -14 -14 -14 -14 -14 -14 -14 -13 -13 -14 -14 -14 -14 -14 -14 -14 -13 -14 -12 -11 -11 -13
-11 -12 -13 -14 -14 -14 -15 -14 -14 -13 -13 -13 -13 -13 -12 -13 -13 -14 -14 -14 -15 -15 -15 -15 -14 -14 -14 -14 -14 -14 -14 -14 -14 -14 -14 -14 -14 -14 -15 -14 -14 -14 -14 -13 -13 -14 -13 -13 -12
-13 -13 -14 -14 -15 -15 -14 -14 -14 -13 -13 -14 -13 -13 -13 -14 -15 -15 -14 -14 -14 -15 -15 -15 -15 -15 -15 -14 -14 -14 -14 -14 -14 -15 -14 -14 -14 -15 -15 -14 -14 -14 -13 -13 -13 -13 -13 -14 -14
-14 -14 -15 -15 -15 -14 -14 -14 -14 -14 -13 -13 -13 -13 -14 -15 -15 -14 -14 -15 -15 -15 -15 -15 -15 -15 -15 -15 -15 -15 -14 -14 -15 -14 -14 -15 -15 -14 -14 -14 -14 -14 -14 -14 -13 -13 -13 -13 -13
-15 -15 -15 -16 -15 -14 -14 -14 -14 -14 -13 -13 -14 -14 -15 -15 -15 -15 -15 -15 -16 -15 -15 -15 -15 -15 -16 -15 -15 -15 -15 -14 -14 -14 -14 -14 -14 -14 -14 -15 -14 -14 -14 -14 -14 -14 -14 -14 -13
-14 -15 -16 -15 -15 -13 -13 -14 -14 -14 -13 -14 -14 -14 -14 -15 -15 -15 -16 -15 -15 -15 -15 -15 -15 -15 -14 -14 -14 -14 -14 -14 -14 -14 -14 -14 -14 -14 -14 -14 -14 -14 -14 -14 -14 -14 -14 -14 -14
-15 -15 -15 -15 -14 -14 -14 -13 -13 -14 -14 -14 -14 -13 -14 -15 -15 -15 -15 -15 -15 -14 -14 -14 -14 -15 -15 -14 -14 -14 -14 -14 -14 -14 -14 -14 -14 -14 -14 -14 -14 -14 -14 -14 -14 -14 -14 -13 -13
-15 -16 -15 -14 -14 -14 -14 -13 -14 -14 -14 -14 -14 -14 -14 -15 -15 -15 -15 -15 -14 -15 -15 -15 -14 -14 -14 -14 -14 -14 -14 -14 -14 -14 -14 -14 -14 -14 -14 -15 -15 -15 -14 -14 -14 -14 -14 -14 -14
-14 -14 -14 -15 -14 -14 -14 -14 -13 -14 -14 -14 -14 -13 -13 -14 -14 -14 -15 -15 -15 -15 -15 -15 -14 -14 -15 -14 -14 -14 -15 -15 -15 -15 -15 -15 -15 -15 -16 -16 -15 -15 -15 -15 -15 -15 -15 -15 -15
-14 -15 -14 -14 -14 -14 -14 -14 -13 -13 -13 -13 -13 -14 -14 -14 -14 -14 -14 -14 -14 -14 -14 -14 -14 -14 -14 -14 -14 -14 -14 -15 -15 -15 -15 -15 -15 -15 -15 -15 -15 -15 -15 -15 -15 -15 -15 -15 -15
-14 -14 -14 -13 -13 -14 -14 -13 -13 -13 -13 -14 -14 -14 -14 -14 -14 -14 -14 -14 -14 -14 -15 -14 -14 -14 -15 -15 -15 -15 -15 -15 -15 -15 -15 -15 -15 -15 -15 -14 -15 -15 -15 -15 -15 -15 -15 -15 -15
-14 -13 -13 -13 -14 -13 -13 -13 -13 -13 -13 -14 -13 -14 -14 -14 -14 -14 -14 -14 -14 -14 -14 -15 -15 -15 -15 -15 -15 -15 -15 -15 -15 -15 -15 -15 -15 -15 -15 -15 -15 -15 -15 -15 -15 -15 -16 -16 -16
-13 -13 -13 -13 -13 -13 -13 -13 -13 -13 -13 -13 -13 -14 -14 -14 -14 -14 -14 -14 -14 -14 -14 -14 -15 -15 -15 -15 -15 -15 -15 -15 -15 -15 -15 -15 -15 -15 -15 -15 -15 -15 -15 -15 -15 -16 -16 -16 -16
-13 -13 -13 -13 -13 -13 -13 -12 -13 -13 -13 -13 -13 -14 -13 -13 -13 -13 -13 -14 -14 -14 -14 -14 -14 -14 -14 -14 -14 -14 -14 -14 -14 -14 -15 -14 -15 -15 -15 -15 -15 -15 -15 -15 -15 -16 -16 -16 -16
-13 -12 -12 -12 -12 -13 -13 -13 -13 -12 -12 -12 -13 -13 -13 -13 -13 -13 -13 -13 -13 -13 -14 -14 -14 -14 -14 -14 -14 -14 -14 -14 -14 -14 -14 -14 -14 -14 -14 -14 -15 -15 -15 -15 -16 -16 -16 -16 -16
-12 -13 -13 -13 -12 -13 -12 -13 -13 -13 -12 -12 -12 -12 -12 -13 -13 -13 -13 -13 -13 -13 -13 -13 -13 -13 -13 -14 -14 -14 -14 -14 -14 -14 -14 -14 -14 -14 -14 -14 -15 -15 -15 -15 -15 -15 -16 -17 -16
-13 -13 -13 -12 -12 -12 -12 -13 -13 -13 -13 -12 -12 -12 -12 -12 -12 -12 -12 -13 -13 -13 -13 -13 -13 -13 -13 -14 -14 -14 -13 -13 -13 -13 -13 -14 -14 -15 -15 -15 -15 -15 -15 -15 -15 -16 -16 -16 -17
-12 -12 -12 -12 -12 -13 -12 -12 -12 -12 -13 -13 -13 -13 -13 -13 -13 -13 -13 -13 -13 -13 -13 -13 -13 -13 -14 -14 -14 -14 -14 -14 -14 -14 -14 -14 -15 -15 -15 -15 -15 -15 -16 -16 -17 -17 -17 -17 -17
-12 -12 -12 -13 -13 -12 -13 -13 -12 -13 -13 -13 -13 -14 -14 -14 -14 -14 -14 -14 -14 -14 -14 -14 -14 -14 -14 -14 -15 -15 -15 -15 -15 -15 -15 -15 -15 -15 -15 -16 -16 -16 -16 -16 -17 -17 -17 -17 -17
-12 -12 -12 -12 -13 -13 -12 -13 -13 -12 -12 -14 -14 -14 -14 -14 -14 -14 -14 -14 -14 -14 -14 -14 -14 -14 -14 -14 -15 -15 -15 -15 -15 -15 -15 -15 -15 -15 -15 -15 -16 -16 -17 -17 -18 -19 -19 -19 -19
-12 -12 -12 -12 -13 -13 -13 -13 -14 -14 -13 -13 -13 -13 -14 -14 -13 -14 -14 -14 -14 -14 -14 -15 -15 -15 -15 -15 -15 -15 -16 -16 -16 -16 -17 -16 -16 -17 -17 -17 -16 -17 -17 -18 -19 -19 -20 -20 -20
-12 -12 -12 -12 -13 -13 -13 -13 -14 -14 -14 -14 -14 -14 -14 -15 -14 -14 -14 -14 -14 -15 -15 -15 -15 -16 -16 -16 -16 -16 -16 -17 -17 -17 -17 -17 -17 -17 -17 -17 -17 -18 -18 -19 -20 -20 -21 -22 -22
-12 -12 -12 -12 -12 -13 -13 -13 -14 -14 -15 -15 -15 -16 -16 -16 -14 -14 -14 -14 -14 -14 -15 -15 -15 -15 -15 -15 -16 -16 -16 -17 -17 -18 -18 -18 -18 -18 -19 -19 -19 -20 -21 -22 -22 -23 -24 -24 -23
-12 -12 -12 -12 -12 -13 -13 -13 -14 -15 -16 -16 -16 -16 -16 -15 -15 -15 -15 -14 -14 -15 -15 -15 -15 -15 -16 -16 -16 -16 -16 -16 -16 -17 -17 -19 -20 -20 -21 -22 -22 -23 -23 -23 -24 -24 -24 -24 -24
-13 -13 -13 -13 -13 -13 -13 -14 -14 -15 -15 -15 -15 -16 -16 -17 -16 -15 -15 -15 -16 -16 -16 -16 -17 -16 -17 -17 -18 -18 -18 -18 -18 -18 -18 -18 -19 -20 -22 -23 -23 -24 -24 -24 -25 -25 -25 -25 -25
-13 -13 -13 -13 -13 -13 -14 -14 -15 -15 -16 -16 -16 -17 -17 -16 -15 -15 -16 -16 -16 -16 -16 -17 -17 -17 -17 -17 -18 -18 -19 -19 -19 -19 -18 -19 -20 -20 -22 -23 -24 -24 -24 -24 -24 -25 -25 -25 -25
-13 -13 -13 -13 -13 -13 -13 -13 -16 -16 -16 -17 -17 -17 -16 -16 -16 -17 -17 -17 -17 -17 -17 -17 -17 -18 -18 -17 -18 -19 -19 -19 -19 -19 -20 -21 -22 -23 -23 -24 -24 -24 -25 -25 -26 -26 -26 -25 -25
-14 -14 -14 -14 -15 -15 -15 -14 -16 -17 -17 -16 -17 -16 -16 -17 -17 -17 -17 -17 -17 -17 -17 -18 -18 -18 -18 -17 -18 -19 -19 -20 -20 -20 -21 -22 -23 -24 -24 -25 -25 -25 -26 -26 -26 -26 -25 -25 -25
-14 -15 -15 -15 -15 -15 -16 -14 -16 -17 -17 -17 -17 -17 -17 -17 -18 -17 -18 -18 -18 -18 -18 -18 -18 -19 -18 -18 -18 -19 -19 -19 -20 -21 -22 -23 -24 -24 -25 -25 -26 -26 -26 -26 -26 -26 -25 -25 -25
Height
5832 5832 5832 5834 5837 5833 5836 5833 5832 5834 5841 5834 5839 5847 5845 5842 5839 5840 5838 5838 5840 5839 5839 5839 5839 5838 5837 5838 5837 5839 5839 5837 5835 5835 5835 5832 5833 5833 5835 5833 5831 5826 5823 5824 5826 5825 5819 5818 5817
5827 5827 5829 5831 5830 5828 5827 5827 5830 5833 5837 5833 5836 5837 5836 5836 5836 5835 5835 5833 5833 5834 5836 5836 5834 5835 5835 5836 5836 5836 5834 5831 5829 5830 5829 5827 5826 5827 5826 5824 5824 5822 5820 5820 5818 5816 5807 5812 5805
5823 5824 5827 5825 5823 5826 5826 5826 5828 5830 5832 5834 5830 5832 5830 5830 5830 5831 5830 5831 5831 5832 5833 5833 5833 5833 5832 5832 5832 5831 5828 5826 5825 5823 5823 5822 5821 5821 5821 5820 5820 5818 5817 5815 5816 5812 5815 5816 5807
5821 5822 5823 5821 5824 5824 5824 5827 5829 5830 5828 5827 5828 5824 5825 5826 5825 5828 5828 5827 5827 5829 5829 5830 5830 5830 5827 5827 5825 5825 5822 5819 5818 5816 5816 5816 5817 5816 5815 5813 5815 5816 5813 5810 5812 5812 5810 5805 5805
5821 5821 5820 5821 5823 5825 5826 5826 5826 5822 5824 5823 5825 5822 5823 5824 5821 5824 5823 5824 5825 5824 5824 5824 5825 5823 5822 5820 5818 5817 5816 5813 5812 5810 5809 5810 5810 5811 5809 5806 5808 5808 5807 5805 5805 5804 5803 5804 5804
5819 5817 5817 5819 5820 5823 5824 5823 5822 5821 5820 5822 5824 5820 5819 5821 5819 5818 5820 5820 5820 5819 5818 5819 5818 5817 5815 5814 5813 5812 5810 5808 5805 5803 5802 5803 5803 5802 5801 5799 5800 5799 5799 5800 5801 5799 5798 5799 5800
5815 5817 5816 5822 5818 5822 5821 5821 5823 5819 5820 5821 5818 5815 5819 5819 5819 5816 5814 5814 5815 5816 5815 5813 5812 5812 5811 5810 5809 5807 5805 5803 5800 5799 5798 5796 5795 5795 5794 5793 5793 5792 5791 5793 5793 5793 5792 5793 5796
5817 5818 5821 5819 5818 5821 5819 5819 5820 5817 5817 5818 5817 5814 5817 5817 5816 5814 5812 5813 5812 5811 5810 5810 5809 5810 5807 5806 5804 5802 5800 5798 5797 5795 5794 5792 5791 5790 5788 5788 5788 5786 5782 5782 5784 5784 5785 5786 5787
5816 5818 5818 5819 5818 5818 5819 5816 5819 5817 5816 5817 5814 5812 5813 5814 5813 5811 5808 5807 5807 5808 5807 5804 5804 5805 5803 5802 5799 5796 5794 5793 5792 5790 5789 5787 5786 5785 5783 5781 5779 5779 5777 5776 5775 5774 5774 5775 5776
5818 5818 5817 5819 5819 5818 5818 5816 5816 5816 5815 5814 5812 5811 5811 5810 5809 5808 5807 5806 5806 5805 5804 5801 5799 5798 5797 5796 5795 5792 5790 5788 5787 5785 5783 5783 5781 5780 5778 5776 5775 5774 5773 5771 5770 5770 5768 5768 5768
5817 5817 5819 5820 5820 5819 5818 5818 5817 5816 5816 5814 5813 5812 5811 5810 5808 5808 5807 5806 5805 5802 5801 5799 5797 5795 5795 5793 5792 5789 5788 5786 5784 5783 5780 5779 5778 5776 5775 5773 5771 5770 5768 5766 5763 5761 5763 5761 5762
5822 5821 5823 5824 5822 5821 5820 5820 5820 5819 5819 5817 5815 5813 5813 5813 5812 5810 5808 5806 5804 5801 5800 5798 5796 5795 5793 5792 5789 5787 5784 5782 5780 5777 5776 5774 5771 5770 5770 5768 5767 5764 5763 5761 5759 5755 5751 5751 5751
5824 5824 5825 5824 5823 5823 5822 5821 5821 5820 5819 5818 5817 5815 5814 5812 5811 5809 5807 5805 5802 5801 5801 5798 5795 5793 5791 5788 5786 5784 5781 5778 5777 5774 5770 5769 5767 5764 5762 5760 5759 5758 5755 5753 5751 5749 5746 5743 5740
5825 5825 5826 5825 5825 5824 5823 5822 5821 5819 5819 5818 5817 5815 5813 5812 5810 5808 5806 5804 5802 5799 5797 5795 5792 5790 5786 5784 5780 5777 5775 5772 5771 5768 5764 5761 5759 5757 5754 5752 5750 5748 5745 5745 5743 5741 5739 5736 5734
5827 5826 5825 5825 5825 5823 5823 5822 5822 5820 5818 5816 5814 5813 5811 5810 5808 5806 5804 5802 5799 5796 5794 5791 5788 5785 5781 5779 5776 5773 5770 5767 5764 5762 5759 5756 5753 5748 5746 5743 5741 5738 5736 5733 5731 5731 5729 5727 5725
5827 5826 5823 5824 5823 5823 5823 5821 5819 5817 5815 5813 5812 5810 5809 5807 5805 5802 5801 5798 5795 5793 5791 5788 5785 5781 5777 5775 5770 5768 5765 5760 5757 5756 5752 5748 5744 5740 5736 5733 5730 5727 5725 5722 5719 5717 5715 5715 5714
5825 5824 5824 5823 5822 5822 5821 5820 5818 5815 5813 5811 5810 5808 5806 5804 5802 5800 5798 5795 5792 5789 5787 5783 5780 5777 5773 5768 5764 5761 5758 5754 5749 5746 5743 5739 5734 5730 5727 5723 5719 5714 5711 5709 5705 5702 5701 5699 5699
5825 5823 5823 5822 5821 5819 5819 5818 5817 5816 5813 5810 5808 5805 5803 5801 5798 5796 5794 5792 5788 5785 5782 5778 5775 5771 5766 5762 5757 5752 5749 5744 5739 5734 5730 5729 5723 5717 5713 5709 5705 5701 5697 5694 5691 5687 5683 5681 5680
5824 5823 5822 5821 5819 5818 5816 5816 5814 5813 5811 5808 5805 5803 5801 5799 5795 5793 5791 5788 5784 5780 5776 5772 5767 5763 5759 5753 5748 5743 5737 5733 5727 5721 5716 5712 5709 5703 5699 5695 5690 5686 5681 5676 5672 5668 5666 5662 5658
5825 5823 5822 5820 5818 5816 5814 5813 5811 5812 5810 5807 5806 5803 5801 5797 5794 5789 5786 5783 5779 5774 5770 5766 5761 5755 5750 5745 5739 5733 5727 5722 5716 5709 5704 5698 5693 5688 5685 5680 5674 5669 5665 5660 5652 5647 5643 5641 5639
5821 5822 5820 5819 5817 5813 5811 5809 5808 5808 5807 5803 5800 5798 5796 5793 5789 5785 5782 5777 5773 5768 5763 5757 5749 5744 5736 5730 5726 5721 5714 5709 5702 5694 5689 5683 5677 5672 5667 5662 5656 5651 5645 5641 5635 5629 5622 5618 5616
5820 5818 5817 5815 5813 5812 5807 5807 5802 5799 5799 5798 5796 5795 5790 5785 5782 5779 5773 5769 5766 5761 5756 5751 5744 5736 5727 5719 5712 5705 5700 5694 5687 5682 5674 5667 5662 5656 5650 5645 5639 5633 5627 5621 5614 5610 5605 5600 5596
5817 5815 5813 5812 5810 5808 5805 5803 5797 5792 5790 5784 5783 5785 5782 5777 5774 5772 5766 5760 5756 5753 5748 5740 5732 5725 5718 5709 5701 5693 5686 5679 5672 5664 5656 5649 5644 5639 5631 5624 5617 5611 5604 5599 5593 5588 5586 5582 5578
5816 5813 5811 5808 5806 5802 5802 5802 5801 5795 5787 5779 5774 5770 5767 5765 5761 5760 5757 5752 5748 5742 5735 5728 5719 5709 5702 5696 5688 5681 5675 5666 5656 5648 5640 5633 5625 5618 5612 5605 5598 5591 5585 5579 5574 5569 5566 5563 5561
5811 5810 5808 5806 5802 5801 5795 5794 5794 5789 5785 5781 5775 5769 5763 5759 5753 5749 5744 5737 5728 5724 5719 5711 5701 5692 5687 5677 5667 5660 5653 5645 5638 5631 5625 5617 5609 5600 5590 5581 5576 5573 5568 5563 5559 5554 5550 5546 5543
5808 5805 5802 5800 5798 5797 5798 5795 5793 5783 5775 5771 5766 5760 5756 5753 5743 5734 5727 5720 5714 5710 5705 5698 5686 5678 5671 5665 5656 5647 5639 5632 5624 5617 5608 5599 5591 5582 5574 5566 5559 5553 5548 5543 5538 5533 5530 5528 5526
5802 5800 5796 5792 5790 5787 5787 5791 5785 5775 5772 5764 5760 5753 5743 5739 5731 5723 5717 5710 5703 5700 5693 5683 5673 5666 5657 5650 5644 5635 5627 5618 5610 5601 5592 5583 5574 5565 5558 5551 5542 5535 5528 5523 5518 5515 5513 5509 5508
5798 5794 5791 5786 5781 5776 5776 5781 5773 5769 5765 5761 5753 5745 5739 5733 5727 5722 5715 5708 5699 5691 5681 5671 5661 5653 5644 5637 5630 5621 5611 5600 5590 5581 5572 5563 5554 5545 5537 5530 5522 5517 5511 5505 5501 5497 5495 5491 5489
5790 5789 5784 5779 5775 5769 5762 5767 5767 5760 5752 5747 5741 5728 5723 5718 5710 5703 5697 5689 5680 5672 5666 5657 5649 5642 5632 5624 5616 5606 5595 5584 5573 5561 5552 5544 5536 5527 5520 5512 5505 5499 5493 5488 5483 5480 5476 5472 5471
5785 5784 5779 5769 5766 5765 5756 5755 5762 5754 5745 5738 5730 5721 5718 5711 5704 5697 5689 5679 5671 5663 5655 5646 5637 5627 5618 5611 5602 5590 5578 5567 5556 5544 5533 5525 5516 5509 5501 5494 5488 5482 5476 5471 5466 5462 5458 5454 5451
Wind_Speed
27 25 18 11 4 8 15 11 13 21 26 34 38 29 30 30 32 25 22 25 25 20 17 18 21 24 23 24 24 27 26 26 26 28 28 32 34 35 35 40 40 44 50 33 31 46 50 48 46
19 10 3 8 16 11 9 16 20 24 27 26 27 31 30 28 23 28 23 27 30 25 17 22 24 24 27 28 31 33 35 33 32 32 32 31 36 35 33 34 39 43 47 42 35 22 36 30 41
8 6 9 21 16 12 19 21 25 25 29 30 31 30 26 20 19 23 25 24 23 24 23 25 28 32 32 33 33 35 37 39 40 38 35 31 33 34 29 35 33 32 34 30 26 29 27 34 29
6 9 21 7 4 10 14 17 24 26 26 25 28 27 23 20 18 17 26 28 29 31 30 29 30 33 35 38 41 44 42 40 38 36 37 36 32 30 36 35 34 32 35 34 30 32 33 34 37
12 17 11 4 6 12 16 18 22 27 29 24 17 22 23 25 17 18 24 25 27 28 30 32 35 36 37 40 38 38 35 31 30 30 33 35 36 34 35 34 33 28 28 29 28 28 27 26 25
22 18 10 7 11 7 12 17 17 20 21 18 18 21 19 18 9 12 21 24 26 30 31 32 33 34 35 36 37 33 32 30 29 26 26 27 28 30 30 28 31 31 29 28 28 30 31 26 25
14 15 13 12 16 14 7 8 11 14 14 11 15 21 17 9 8 14 18 21 18 20 25 29 32 33 35 34 28 27 29 29 29 27 27 28 28 28 29 29 28 30 30 27 29 32 33 31 29
17 17 9 16 12 5 4 1 5 9 8 10 11 13 11 13 18 13 13 17 19 20 21 22 24 21 24 22 22 24 25 26 25 26 26 27 28 29 30 31 31 32 35 35 31 32 33 34 36
18 12 12 5 8 8 3 6 2 9 11 10 15 16 15 13 11 12 14 18 16 17 20 21 20 17 18 18 18 23 24 24 24 25 27 28 29 28 28 28 29 29 30 32 31 32 34 31 29
4 8 1 4 5 7 8 7 7 5 5 5 5 9 12 12 13 11 8 10 6 8 11 14 14 13 12 13 9 10 12 14 15 17 18 19 21 21 20 22 24 25 27 29 29 29 31 30 28
16 8 9 8 8 11 16 13 13 14 14 12 14 12 11 13 11 10 10 12 11 10 8 7 7 8 8 10 11 11 10 10 14 14 18 20 22 23 24 26 29 31 33 34 34 33 31 31 30
18 17 13 11 10 8 8 10 11 11 11 11 12 11 10 10 10 10 10 12 11 10 10 11 10 12 13 15 15 16 19 18 19 23 24 25 28 29 31 33 34 35 34 34 35 38 39 38 35
14 10 8 10 8 7 10 11 9 10 11 10 10 11 11 11 11 11 12 13 14 15 11 14 17 18 19 21 22 23 22 24 24 27 29 30 32 35 37 38 38 38 39 39 39 38 38 39 39
10 8 6 6 6 6 8 7 9 9 8 8 10 9 12 13 14 13 14 16 16 18 17 18 18 21 23 22 26 27 27 29 29 29 32 34 35 37 38 39 40 41 42 42 42 43 44 44 43
6 3 3 3 3 6 8 8 7 5 6 9 11 13 15 14 15 16 14 14 19 19 20 22 22 23 25 26 27 29 31 33 34 34 36 37 39 41 41 42 42 43 44 45 46 45 46 46 48
2 2 11 9 8 8 7 10 11 12 12 11 10 12 14 16 18 15 15 17 19 19 20 21 22 24 27 28 31 31 32 34 35 34 37 39 40 41 44 46 47 48 48 48 46 46 46 47 48
7 9 9 10 9 9 9 7 9 12 18 17 13 11 11 11 11 13 16 20 20 21 22 25 28 30 31 34 35 36 36 39 41 42 42 44 46 48 50 52 53 55 55 56 57 60 57 51 50
9 9 10 11 12 14 13 12 11 12 16 19 15 17 18 17 17 15 14 16 20 23 26 29 30 32 35 36 39 42 43 44 47 49 51 51 52 54 55 56 57 57 60 63 64 64 64 63 58
10 9 10 11 13 11 15 13 13 13 14 16 16 18 21 23 24 24 23 23 24 25 27 31 36 39 39 43 45 46 47 48 50 52 54 55 56 58 60 60 61 62 65 68 68 68 68 68 67
10 11 11 12 12 11 14 15 15 11 14 17 15 15 18 18 20 26 27 28 29 32 36 39 40 42 45 48 48 50 51 51 54 56 58 60 61 61 61 62 65 68 71 72 73 73 72 71 67
17 13 16 14 13 18 18 18 20 19 16 20 23 21 22 25 27 29 34 36 38 39 38 41 45 48 51 52 52 54 54 53 55 58 60 62 63 63 66 68 70 73 74 72 70 66 66 67 65
16 16 15 17 18 18 24 19 23 27 26 25 24 24 30 33 33 35 37 37 38 40 43 44 47 49 52 56 58 57 55 57 58 59 63 63 63 66 69 71 73 73 73 67 63 61 59 62 64
20 19 20 17 18 19 21 24 21 29 33 36 36 30 31 41 40 33 40 42 41 39 39 43 47 49 51 51 53 57 58 59 59 60 61 64 68 68 70 73 74 73 69 64 61 60 59 59 59
17 18 20 23 23 25 25 22 16 28 29 34 40 42 40 49 51 48 47 45 42 41 44 48 49 52 54 57 55 53 55 56 59 61 62 64 67 69 71 71 69 63 60 59 61 59 60 58 60
17 19 21 22 22 23 28 27 28 28 24 26 33 37 46 49 52 53 53 52 54 52 54 55 57 61 60 60 61 62 62 62 62 63 64 66 65 64 65 65 63 60 61 59 54 58 63 60 64
20 23 24 26 28 27 23 25 23 29 29 37 39 42 48 49 54 57 60 61 61 60 60 60 63 65 61 58 60 62 62 62 65 68 69 68 69 66 62 63 62 63 60 58 56 61 62 63 64
23 24 28 31 32 34 31 23 17 29 32 32 36 43 50 52 57 62 64 64 64 63 62 63 65 64 63 62 62 61 62 66 68 68 68 70 69 65 61 60 61 62 65 66 67 64 64 64 62
21 27 30 33 36 40 39 32 25 30 28 29 38 46 51 52 58 59 57 57 60 60 61 64 64 62 63 62 60 63 67 69 69 68 69 66 62 60 59 60 62 62 61 61 60 60 60 61 59
29 31 35 36 36 41 46 40 33 36 44 41 49 55 56 62 63 61 61 61 63 64 62 60 62 61 61 61 66 69 70 72 71 70 67 61 57 57 57 58 58 56 56 56 58 59 58 57 56
30 28 30 38 39 39 44 45 32 40 38 46 49 55 56 58 59 55 55 57 57 58 59 60 62 63 65 67 70 72 74 75 74 72 63 57 58 57 56 54 54 54 54 55 56 58 58 59 62
Wind_Direction
282 286 298 306 219 170 155 222 228 240 238 243 247 271 277 259 253 255 254 260 265 272 274 250 248 253 255 259 272 271 269 281 296 268 287 280 286 278 277 279 285 282 276 280 264 256 241 238 232
287 295 341 166 173 191 180 206 231 234 243 253 254 268 276 258 238 242 258 282 272 283 255 255 261 269 274 275 276 281 286 293 291 285 284 285 281 279 286 286 288 288 288 291 315 263 243 263 238
272 268 135 153 156 178 197 216 229 242 247 249 264 276 265 248 256 235 252 265 274 276 267 266 270 268 266 271 280 283 285 287 287 287 289 283 285 283 277 289 291 295 302 305 307 303 282 253 245
138 148 155 180 242 241 237 249 260 259 260 266 280 279 271 256 245 232 245 257 261 264 266 272 270 270 276 281 281 281 284 290 288 285 285 284 285 283 285 292 291 290 290 293 295 295 295 308 310
135 138 108 92 271 272 266 268 260 263 262 276 283 274 274 299 246 273 267 268 269 269 270 270 271 275 276 275 283 286 289 293 294 285 281 280 279 282 287 288 288 290 287 285 291 294 297 300 311
137 142 132 151 245 286 296 262 261 260 267 286 287 287 286 299 259 273 296 293 281 280 277 275 273 276 282 281 285 286 284 288 287 286 284 282 281 284 288 291 293 295 292 288 285 289 291 296 297
116 86 88 279 271 296 298 274 280 285 292 297 293 285 302 317 293 300 299 295 283 275 274 276 276 278 281 285 288 284 281 283 284 286 290 293 293 293 293 294 295 295 295 291 289 284 289 288 288
104 91 125 264 283 316 347 335 304 289 301 306 294 293 311 297 302 297 286 282 276 281 280 276 279 284 285 293 296 292 287 287 288 291 292 293 293 297 297 295 294 296 300 302 295 291 288 286 283
131 149 207 280 318 334 319 303 325 300 312 284 294 306 310 310 305 307 304 295 303 298 295 297 293 285 279 285 282 287 283 285 287 288 293 295 297 300 305 312 317 318 316 316 317 315 309 311 306
150 78 69 295 303 331 20 344 13 18 5 46 283 19 56 51 45 42 11 359 353 295 301 297 318 328 334 334 319 302 306 299 303 307 310 313 312 306 300 299 303 305 303 301 303 306 305 307 308
86 87 66 72 74 71 72 58 66 64 67 53 65 62 51 54 44 34 21 25 36 38 30 21 358 356 348 342 338 325 315 312 306 303 302 303 301 300 297 294 296 298 299 299 298 297 296 298 297
88 96 90 65 63 63 47 45 45 34 34 24 20 15 10 6 355 346 342 346 352 353 346 334 326 320 315 309 305 300 300 300 300 299 298 298 297 296 295 293 293 294 295 294 294 296 296 294 293
74 71 59 52 37 42 31 29 22 16 11 6 359 353 348 344 333 323 322 321 322 317 311 303 305 301 296 297 295 294 291 293 294 295 295 295 296 298 298 298 296 295 293 293 291 290 290 289 290
52 55 59 54 48 26 12 9 360 1 342 350 336 338 328 325 322 318 318 317 316 313 315 305 300 299 299 301 302 300 299 297 293 291 292 293 294 294 294 294 294 295 294 293 292 293 292 289 287
73 40 43 52 24 33 10 360 348 334 327 322 313 316 311 304 303 303 299 301 301 303 304 301 299 297 296 295 291 293 297 297 299 300 299 297 298 298 297 296 295 292 293 293 294 293 291 288 287
84 44 42 33 21 1 340 338 342 354 7 354 319 297 287 285 291 293 287 289 292 300 302 304 309 310 309 307 305 305 302 299 300 299 298 299 297 296 296 297 296 296 296 295 293 291 286 284 283
36 21 346 316 355 346 360 346 333 336 345 343 343 339 333 314 299 295 296 299 306 310 312 315 317 315 313 311 309 304 301 301 299 299 298 298 298 297 297 297 296 295 294 292 293 294 292 284 277
333 324 320 332 331 335 336 333 325 325 333 336 331 329 332 333 324 320 309 310 309 311 313 313 313 312 310 310 308 304 300 298 296 295 294 298 297 296 296 297 296 293 291 290 290 291 289 287 282
314 310 312 312 317 316 309 321 313 318 316 330 329 319 323 322 323 321 316 314 313 313 315 316 313 310 311 309 306 306 301 298 297 297 295 293 292 293 294 294 294 294 293 292 292 290 288 285 283
290 291 282 289 299 311 304 299 310 319 311 317 318 313 310 310 317 317 314 313 311 308 310 310 310 307 305 303 302 302 301 298 297 296 295 293 292 290 290 291 292 292 292 293 293 293 290 287 283
313 298 285 281 288 313 318 315 312 315 324 311 303 306 308 302 304 310 310 305 302 303 305 307 306 306 307 304 302 302 300 298 296 295 294 294 293 291 291 292 292 292 293 293 292 289 286 285 281
308 316 303 298 302 305 308 321 321 316 315 305 304 306 303 304 307 308 309 308 306 304 304 305 303 304 303 302 302 303 301 299 298 297 296 296 295 293 292 291 292 292 293 294 290 286 281 279 279
314 319 313 313 307 302 308 322 327 330 321 309 316 318 310 313 316 317 313 314 314 311 305 305 305 302 299 301 303 303 302 302 300 299 296 296 296 295 294 294 295 297 297 294 289 285 282 281 278
309 308 311 315 315 316 322 322 314 318 314 310 314 311 307 312 318 319 321 320 314 315 315 312 306 305 307 308 306 304 303 302 301 301 300 301 300 299 299 299 300 295 292 288 284 280 280 284 282
309 310 310 310 316 320 321 320 324 323 317 290 287 293 304 313 315 318 321 320 322 323 321 318 316 312 316 314 312 311 309 306 304 303 302 302 302 304 301 296 293 290 287 282 280 284 282 278 279
308 311 311 310 307 308 305 311 319 302 301 309 302 303 306 310 315 321 326 325 323 323 320 319 316 313 316 313 310 310 309 306 305 304 303 305 307 307 299 294 291 288 284 281 276 273 275 275 276
316 315 313 311 310 311 315 326 315 303 312 293 293 303 310 312 316 324 323 321 318 318 319 317 311 314 312 311 310 309 307 305 305 305 306 307 309 306 298 292 288 285 281 279 276 274 277 278 278
311 310 312 312 313 313 315 328 319 316 312 298 301 303 308 312 316 316 313 312 314 315 313 311 313 312 310 308 308 306 306 308 309 309 309 310 305 299 295 290 287 287 285 282 280 280 281 280 280
312 313 317 313 313 315 314 323 324 320 316 313 311 311 312 315 318 319 317 319 316 313 313 311 308 308 305 306 307 310 312 312 311 311 312 308 301 295 290 287 287 285 282 281 282 282 282 282 281
311 319 317 313 313 310 310 316 325 316 309 306 300 302 312 313 314 315 314 310 308 309 310 311 309 310 307 308 309 311 311 312 312 313 312 304 299 294 292 291 289 286 285 285 284 285 285 284 282